[[{"header":{"parameterUnit":"m.s-1","parameterCategory":1,"la1":30.2991,"la2":30.254,"lo1":-89.0895,"lo2":-89.0444,"dy":0.0017,"dx":0.0017,"nx":28,"ny":28,"refTime":"2025-04-02T03:00:00:Z","depth":0,"parameterNumber":2,"parameterNumberName":"U-component_of_WINDS"},"data":[0,0,0,0,0,0,0,0,0,0,0,0,0,0,0,0,0,0,0,0,0,0,0,0,0,0,0,0,0,0,0,0,0,0,0,0,0,0,0,0,0,0,0,0,0,0,0,0,0,0,0,0,0,0,0,0,0,0,-3.9102,-3.9103,0,-3.9253,-3.9254,-3.9256,-3.9302,-3.9301,-3.9301,-3.93,-3.9454,-3.9459,-3.9463,0,0,0,0,0,0,0,0,0,0,0,0,0,-3.8853,-3.8858,-3.9101,-3.9103,-3.9105,-3.9252,-3.9254,-3.9256,-3.9302,-3.9301,-3.93,-3.93,-3.9452,-3.9458,-3.9464,0,0,0,0,0,0,0,0,0,0,0,0,0,-3.8978,-3.8859,-3.9101,-3.9146,-3.9151,-3.9252,-3.9254,-3.9257,-3.9302,-3.9301,-3.93,-3.9299,-3.945,-3.9457,-3.9465,-3.9531,0,0,-3.9487,-3.949,0,0,0,0,0,0,0,0,-3.8971,-3.8987,-3.9137,-3.9143,-3.9149,-3.9257,-3.9223,-3.9349,-3.9303,-3.9245,-3.93,-3.9299,-3.9389,-3.9402,-3.9432,-3.9539,-3.9545,-3.9487,-3.9492,-3.9495,-3.9497,0,0,0,0,0,0,0,-3.8962,-3.8981,-3.9161,-3.914,-3.9147,-3.9159,-3.9175,-3.9247,-3.9322,-3.925,-3.9254,-3.9271,-3.9392,-3.9425,-3.9436,-3.9547,-3.9487,-3.9493,-3.9498,-3.9501,-3.9717,-3.9718,0,0,0,0,0,0,-3.8946,-3.8974,-3.9156,-3.9166,-3.9056,-3.9164,-3.9182,-3.9224,-3.9321,-3.9335,-3.9272,-3.9273,-3.9413,-3.9428,-3.9442,-3.9526,-3.9495,-3.9501,-3.9505,-3.9715,-3.9717,-3.9718,0,0,0,0,0,0,-3.8941,-3.8962,-3.915,-3.9071,-3.9096,-3.9169,-3.9215,-3.9227,-3.926,-3.9337,-3.9351,-3.9292,-3.9413,-3.9432,-3.9509,-3.9532,-3.9505,-3.9511,-3.9714,-3.9716,-3.9718,-3.9695,0,0,0,0,0,0,-3.8933,-3.896,-3.8986,-3.9071,-3.91,-3.9214,-3.9217,-3.9231,-3.9272,-3.9275,-3.936,-3.9373,-3.9414,-3.9498,-3.9516,-3.9541,-3.9517,-3.9712,-3.9714,-3.9717,-3.9694,-3.9696,-3.9698,0,0,0,0,0,-3.8924,-3.8973,-3.8987,-3.9009,-3.9134,-3.9216,-3.9232,-3.9279,-3.9274,-3.9301,-3.9351,-3.937,-3.9527,-3.9505,-3.9526,-3.9554,-3.971,-3.9714,-3.9717,-3.9693,-3.9695,-3.9698,0,0,0,0,0,0,-3.8888,-3.8985,-3.9001,-3.9079,-3.9139,-3.9223,-3.9258,-3.928,-3.9342,-3.9342,-3.9397,-3.9416,-3.9489,-3.953,-3.9504,-3.9624,-3.962,-3.9627,-3.9594,-3.9597,-3.9599,-3.9587,-3.9523,0,0,0,0,0,-3.8889,-3.8948,-3.903,-3.909,-3.912,-3.9184,-3.9221,-3.9252,-3.9316,-3.9342,-3.9397,-3.9458,-3.9522,-3.9562,-3.9625,-3.9701,-3.972,-3.9731,-3.9732,-3.9734,-3.9739,-3.9782,-3.9788,-3.9729,-3.9729,-3.9729,0,0,-3.8892,-3.8952,-3.8986,-3.9085,-3.9134,-3.9194,-3.9205,-3.9267,-3.9311,-3.9351,-3.9427,-3.947,-3.9543,-3.9619,-3.9656,-3.9655,-3.976,-3.9738,-3.9738,-3.9743,-3.9786,-3.9791,-3.9796,-3.9731,-3.9731,-3.973,0,0,-3.8926,-3.8978,-3.9034,-3.9085,-3.916,-3.9203,-3.9217,-3.9299,-3.9329,-3.9406,-3.9437,-3.9491,-3.9599,-3.9649,-3.9689,-3.9745,-3.9764,-3.9764,-3.9773,-3.9814,-3.9819,-3.9823,-3.9842,-3.9848,-3.9769,-3.9769,-3.9769,0,-3.892,-3.901,-3.906,-3.9121,-3.9164,-3.9204,-3.9261,-3.9307,-3.9399,-3.9428,-3.9427,-3.9563,-3.9615,-3.9704,-3.9717,-3.9749,-3.9766,-3.9753,-3.9814,-3.9819,-3.9824,-3.9843,-3.985,-3.9768,-3.9769,-3.9769,-3.9769,0,-3.8998,-3.9061,-3.9097,-3.9185,-3.9232,-3.9291,-3.935,-3.9392,-3.9419,-3.9462,-3.9541,-3.9604,-3.968,-3.9704,-3.9732,-3.9798,-3.9795,-3.9804,-3.98,-3.9828,-3.9846,-3.9854,-3.9767,-3.9768,-3.9768,-3.9768,0,0,-3.9012,-3.9128,-3.914,-3.9181,-3.9268,-3.9318,-3.9379,-3.9454,-3.9488,-3.9551,-3.9603,-3.9694,-3.9703,-3.9748,-3.9782,-3.9818,-3.9857,-3.9823,-3.9825,-3.9826,-3.9933,-3.9925,-3.9932,-3.9872,-3.9874,-3.9875,-3.9927,0,-3.9057,-3.9166,-3.9214,-3.9302,-3.936,-3.94,-3.9453,-3.9513,-3.9555,-3.9611,-3.9658,-3.9721,-3.9728,-3.9756,-3.9794,-3.9844,-3.9879,-3.9842,-3.9921,-3.9923,-3.9899,-3.9942,-3.9934,-3.9979,-3.9934,-3.9936,-3.9937,0,-3.9123,-3.9186,-3.928,-3.936,-3.9387,-3.9433,-3.9506,-3.9559,-3.9628,-3.9656,-3.9707,-3.9739,-3.9805,-3.9799,-3.989,-3.9863,-3.9899,-3.9929,-3.9932,-3.9939,-3.993,-3.9949,-3.9995,-4.0001,-3.9949,-3.9948,-3.9947,0,-3.9121,-3.923,-3.9301,-3.9334,-3.9431,-3.9463,-3.9504,-3.9572,-3.9614,-3.9678,-3.9706,-3.9777,-3.9815,-3.9869,-3.992,-3.9911,-4.0006,-4.0004,-4.0031,-4.003,-4.0048,-4.0045,-4.0098,-4.0073,-4.0073,-4.0073,-4.0073,0,-3.9165,-3.9221,-3.9301,-3.9344,-3.9408,-3.9463,-3.9525,-3.9569,-3.9629,-3.9682,-3.9721,-3.977,-3.9835,-3.9892,-3.9932,-4.0001,-4.0019,-4.0043,-4.0053,-4.0039,-4.0035,-4.0061,-4.0058,-4.0075,-4.0075,-4.0074,-4.0074,0,-3.9174,-3.923,-3.9309,-3.9394,-3.9417,-3.946,-3.9533,-3.9576,-3.9621,-3.9687,-3.9706,-3.9776,-3.9846,-3.9902,-3.9993,-4.002,-4.0092,-4.0104,-4.0069,-4.0073,-4.0097,-4.0093,-4.0166,-4.0178,-4.0147,-4.0147,-4.0147,0,-3.9197,-3.924,-3.933,-3.9368,-3.941,-3.947,-3.9514,-3.957,-3.9614,-3.9696,-3.9729,-3.9802,-3.9862,-3.9971,-4.003,-4.01,-4.0113,-4.0134,-4.0124,-4.0108,-4.0112,-4.0108,-4.0112,-4.0134,-4.0134,-4.0134,-4.0134,0,-3.9232,-3.9258,-3.9318,-3.9389,-3.944,-3.9499,-3.9558,-3.9587,-3.9655,-3.9702,-3.9773,-3.982,-3.9913,-3.9984,-4.006,-4.0104,-4.013,-4.0137,-4.0147,-4.0132,-4.0109,-4.012,-4.0069,-4.0135,-4.0135,-4.0135,-4.0135,-4.0135,-3.9247,-3.9288,-3.9358,-3.9424,-3.9475,-3.953,-3.9575,-3.9626,-3.9686,-3.9766,-3.9796,-3.9869,-3.9938,-4.0043,-4.0087,-4.0145,-4.0148,-4.0162,-4.0166,-4.0168,-4.0165,-4.0101,-4.016,-4.016,-4.016,-4.016,-4.016,0,-3.9283,-3.933,-3.9391,-3.9473,-3.9526,-3.9547,-3.9614,-3.9657,-3.972,-3.9782,-3.9841,-3.9923,-3.9993,-4.0058,-4.0131,-4.0165,-4.0179,-4.0182,-4.0179,-4.0189,-4.0159,-4.0143,-4.0169,-4.0169,-4.0169,-4.0169,-4.0169,-4.0169,-3.9308,-3.9377,-3.9412,-3.9507,-3.9554,-3.9626,-3.9662,-3.9713,-3.9763,-3.9853,-3.9911,-3.9953,-4.0017,-4.0095,-4.016,-4.0177,-4.0202,-4.0201,-4.0222,-4.0192,-4.0191,-4.0189,-4.0174,-4.0206,-4.0206,-4.0246,-4.0246,-4.0247]},{"header":{"parameterUnit":"m.s-1","parameterCategory":1,"la1":30.2991,"la2":30.254,"lo1":-89.0895,"lo2":-89.0444,"dy":0.0017,"dx":0.0017,"nx":28,"ny":28,"refTime":"2025-04-02T03:00:00:Z","depth":0,"parameterNumber":3,"parameterNumberName":"V-component_of_WINDS"},"data":[0,0,0,0,0,0,0,0,0,0,0,0,0,0,0,0,0,0,0,0,0,0,0,0,0,0,0,0,0,0,0,0,0,0,0,0,0,0,0,0,0,0,0,0,0,0,0,0,0,0,0,0,0,0,0,0,0,0,4.8502,4.8503,0,4.8604,4.8605,4.8606,4.8619,4.8618,4.8617,4.8616,4.8716,4.872,4.8723,0,0,0,0,0,0,0,0,0,0,0,0,0,4.8316,4.8319,4.8502,4.8503,4.8504,4.8604,4.8605,4.8606,4.8619,4.8618,4.8617,4.8616,4.8715,4.8719,4.8724,0,0,0,0,0,0,0,0,0,0,0,0,0,4.8405,4.832,4.8502,4.8523,4.8526,4.8603,4.8605,4.8607,4.8619,4.8618,4.8616,4.8615,4.8714,4.8719,4.8724,4.8787,0,0,4.8741,4.8743,0,0,0,0,0,0,0,0,4.84,4.8412,4.8518,4.8521,4.8525,4.8597,4.8576,4.8667,4.862,4.8584,4.8616,4.8614,4.8678,4.8686,4.8708,4.8791,4.8795,4.8741,4.8744,4.8747,4.8748,0,0,0,0,0,0,0,4.8394,4.8407,4.8542,4.852,4.8524,4.8527,4.8538,4.8594,4.8637,4.8587,4.8588,4.86,4.8679,4.8703,4.871,4.8797,4.8741,4.8746,4.8749,4.8751,4.8939,4.8941,0,0,0,0,0,0,4.8384,4.8402,4.8539,4.8545,4.8458,4.8531,4.8543,4.8575,4.8637,4.8645,4.8601,4.86,4.8694,4.8704,4.8714,4.8793,4.8747,4.8752,4.8755,4.8938,4.894,4.8942,0,0,0,0,0,0,4.838,4.8396,4.8535,4.8474,4.8492,4.8536,4.8572,4.8578,4.8602,4.8648,4.8655,4.8618,4.8694,4.8706,4.8769,4.8797,4.8754,4.8759,4.8935,4.8938,4.8941,4.8951,0,0,0,0,0,0,4.8375,4.8395,4.8419,4.8475,4.8495,4.8589,4.8573,4.8581,4.8612,4.8612,4.8665,4.8673,4.8693,4.8761,4.8775,4.8804,4.8763,4.8933,4.8937,4.894,4.8948,4.8954,4.8958,0,0,0,0,0,4.8368,4.8416,4.842,4.8437,4.8527,4.8591,4.8602,4.8626,4.8614,4.8639,4.8669,4.8671,4.8792,4.8768,4.8783,4.8814,4.8932,4.8936,4.894,4.8946,4.8953,4.8958,0,0,0,0,0,0,4.8361,4.8424,4.8429,4.8497,4.8539,4.8593,4.8625,4.8632,4.8677,4.8674,4.8701,4.8713,4.8775,4.88,4.8773,4.8879,4.886,4.8868,4.886,4.8867,4.8871,4.8865,4.8768,0,0,0,0,0,4.8367,4.8415,4.8467,4.8522,4.8543,4.858,4.8609,4.8624,4.8668,4.8685,4.8719,4.876,4.8808,4.8838,4.8884,4.8952,4.8965,4.8981,4.8986,4.8989,4.8996,4.9036,4.9044,4.8955,4.8955,4.8955,0,0,4.8381,4.8421,4.8449,4.8521,4.8556,4.8604,4.8595,4.8645,4.8682,4.8692,4.8755,4.8781,4.8829,4.8896,4.8926,4.8918,4.9023,4.8995,4.8997,4.9001,4.9041,4.9049,4.9057,4.8958,4.8957,4.8957,0,0,4.8431,4.8465,4.8516,4.8552,4.8604,4.8629,4.8642,4.8696,4.8714,4.8778,4.8788,4.883,4.8911,4.8946,4.8974,4.904,4.9044,4.9054,4.908,4.9118,4.9125,4.9132,4.9157,4.9166,4.906,4.906,4.906,0,4.844,4.8515,4.8541,4.8593,4.8625,4.8639,4.8691,4.8723,4.8788,4.8809,4.88,4.8904,4.8936,4.9012,4.9029,4.905,4.9066,4.9048,4.9123,4.9129,4.9136,4.916,4.9169,4.9061,4.906,4.906,4.906,0,4.8526,4.8577,4.8612,4.8677,4.8712,4.8764,4.8798,4.8831,4.8843,4.887,4.8935,4.8976,4.9031,4.905,4.9061,4.9128,4.9122,4.9117,4.91,4.9145,4.9168,4.9178,4.9062,4.9062,4.9061,4.9061,0,0,4.8573,4.8654,4.8666,4.8697,4.8757,4.8797,4.8849,4.8906,4.8935,4.8979,4.9024,4.9093,4.909,4.9122,4.9138,4.9172,4.9224,4.9163,4.9165,4.9175,4.9303,4.9307,4.9318,4.9227,4.9229,4.9231,4.9299,0,4.8631,4.8727,4.8754,4.8835,4.8884,4.8898,4.8944,4.8986,4.9012,4.9057,4.9085,4.9135,4.9126,4.9146,4.918,4.9211,4.9251,4.9206,4.927,4.9272,4.926,4.933,4.9334,4.9397,4.9309,4.931,4.9311,0,4.8712,4.8761,4.8848,4.8904,4.8926,4.8967,4.9022,4.9065,4.9113,4.9129,4.9167,4.918,4.9236,4.9215,4.9292,4.9261,4.9289,4.9308,4.9312,4.9319,4.9295,4.9341,4.9418,4.9428,4.9326,4.9325,4.9324,0,4.8741,4.8828,4.8892,4.8917,4.8984,4.9013,4.9042,4.9089,4.9122,4.917,4.9192,4.9245,4.9274,4.9314,4.9342,4.9323,4.9418,4.9398,4.9434,4.9433,4.9453,4.9452,4.9537,4.9469,4.9468,4.9468,4.9468,0,4.8804,4.8857,4.8906,4.8945,4.9006,4.9035,4.9094,4.9123,4.9165,4.921,4.9225,4.9267,4.93,4.9347,4.9368,4.943,4.9442,4.9458,4.9463,4.9458,4.9456,4.9477,4.9474,4.9471,4.947,4.947,4.9469,0,4.8846,4.8881,4.8952,4.9011,4.9027,4.9069,4.9119,4.9158,4.9185,4.9243,4.9258,4.93,4.9356,4.9387,4.9456,4.9471,4.9541,4.9543,4.9525,4.9528,4.9562,4.956,4.9665,4.9681,4.9601,4.9601,4.9602,0,4.8885,4.8927,4.8991,4.9024,4.9054,4.9105,4.9141,4.9171,4.9207,4.9266,4.9298,4.9356,4.9403,4.9491,4.9528,4.9582,4.9586,4.962,4.9594,4.9588,4.9589,4.9587,4.9592,4.9624,4.9625,4.9626,4.9626,0,4.8952,4.8968,4.9018,4.9076,4.9117,4.9163,4.9209,4.9234,4.9273,4.9312,4.9371,4.9408,4.948,4.9537,4.9594,4.9623,4.9632,4.9634,4.9645,4.9641,4.963,4.9638,4.9539,4.9631,4.9631,4.963,4.963,4.963,4.8995,4.9034,4.9086,4.9143,4.9181,4.9224,4.9264,4.9298,4.9348,4.9411,4.9425,4.9487,4.9536,4.9614,4.9645,4.9694,4.9687,4.9703,4.9707,4.9711,4.9714,4.9621,4.9704,4.9703,4.9703,4.9703,4.9703,0,4.9064,4.9099,4.9151,4.9216,4.926,4.9266,4.9317,4.9354,4.9409,4.9455,4.9502,4.957,4.9626,4.9668,4.9725,4.9756,4.9762,4.977,4.9769,4.9776,4.9715,4.9701,4.9765,4.9765,4.9765,4.9765,4.9765,4.9765,4.9105,4.9173,4.9195,4.9281,4.9315,4.9378,4.9407,4.9447,4.9484,4.956,4.9608,4.9635,4.968,4.9741,4.9792,4.9803,4.9824,4.9833,4.9844,4.9787,4.978,4.9774,4.976,4.9837,4.9837,4.9902,4.9902,4.9903]}]]